Flag for China Weather past 2 weeks in Shenzhen, Guangdong, China

Now
79 °F

Passing clouds.


Feels Like: 82 °F
Forecast: 76 / 88 °F
Wind: 3 mph from East

Location: Shenzhen Airport

Current Time: Aug 21, 2014 at 4:29:44 AM

Latest Report: Aug 21, 2014 at 4:00 AM


Visibility: N/A

Pressure: 29.83 "Hg

Humidity: 89%

Dew point: 75 °F

Location of ShenzhenLocation

Historic Weather in Shenzhen — Graph

°F

Shenzhen temperature yesterday

Maximum temperature yesterday: 81 °F (at 4:00 AM)
Minimum temperature yesterday: 77 °F (at 7:00 AM)
Average temperature yesterday: 79 °F

Past Weeks' High & Low Weather Summary

 TemperatureHumidityPressure
High91 °F (Aug 16, 2:00 PM)100% (Aug 13, 4:00 AM)29.86 "Hg (Aug 13, 4:00 AM)
Low77 °F (Aug 13, 4:00 AM)63% (Aug 16, 2:00 PM)29.53 "Hg (Aug 8, 5:00 PM)
Average85 °F83%29.69 "Hg
* Reported Aug 6 3:00 AM — Aug 21 3:00 AM, Shenzhen, Weather by CustomWeather, © 2014

Note: Actual official high and low records may vary slightly from our data, if they occured in-between our weather recording intervals... More about our weather records

Advertising

Shenzhen weather history for previous 24 hours

 ConditionsComfort  
Time TempWeatherWind HumidityBarometerVisibility
3:00 AM
Aug 21
79 °FPassing clouds.3 mph89%29.83 "HgN/A
2:00 AM79 °FClear.3 mph89%29.83 "Hg10 mi
1:00 AM79 °FClear.3 mph89%29.83 "Hg10 mi
12:00 AM79 °FClear.1 mph89%29.83 "Hg10 mi
11:00 PM
Aug 20
79 °FClear.3 mph89%29.83 "Hg10 mi
10:00 PM79 °FPassing clouds.3 mph89%29.83 "HgN/A
9:00 PM79 °FPassing clouds.6 mph89%29.80 "HgN/A
8:00 PM79 °FLight rain. Passing clouds.8 mph89%29.83 "HgN/A
7:00 PM79 °FPassing clouds.8 mph89%29.83 "HgN/A
6:00 PM77 °FSprinkles. Passing clouds.3 mph94%29.83 "HgN/A
5:00 PM77 °FRain showers. Partly sunny.8 mph89%29.83 "Hg2 mi
4:00 PM79 °FScattered clouds.6 mph89%29.83 "HgN/A
3:00 PM81 °FPassing clouds.10 mph79%29.83 "HgN/A
2:00 PM81 °FPartly sunny.15 mph74%29.83 "HgN/A
1:00 PM79 °FSprinkles. Partly sunny.17 mph89%29.83 "Hg5 mi
12:00 PM81 °FScattered clouds.8 mph84%29.83 "HgN/A
11:00 AM81 °FScattered clouds.8 mph84%29.86 "HgN/A
10:00 AM79 °FLight rain. Passing clouds.10 mph89%29.86 "HgN/A
9:00 AM79 °FLight rain. Passing clouds.8 mph89%29.83 "HgN/A
8:00 AM79 °FLight rain. Scattered clouds.10 mph89%29.83 "HgN/A
7:00 AM77 °FSprinkles. Scattered clouds.10 mph94%29.83 "HgN/A
6:00 AM79 °FThunderstorms. Partly cloudy.17 mph89%29.80 "Hg3 mi
5:00 AM79 °FStrong thunderstorms. Passing clouds.6 mph94%29.77 "Hg5 mi
4:00 AM81 °FRain showers. Passing clouds.8 mph84%29.77 "HgN/A
Weather by CustomWeather, © 2014

See weather overviewHow to use our weather pages